TimeCDT,TemperatureF,Dew PointF,Humidity,Sea Level PressureIn,VisibilityMPH,Wind Direction,Wind SpeedMPH,Gust SpeedMPH,PrecipitationIn,Events,Conditions,WindDirDegrees,DateUTC
12:52 AM,79.0,66.9,66,29.83,10.0,South,12.7,-,N/A,,Clear,180,2013-09-19 05:52:00
1:52 AM,78.1,66.9,68,29.83,10.0,South,11.5,-,N/A,,Clear,180,2013-09-19 06:52:00
2:52 AM,77.0,66.9,71,29.83,10.0,South,10.4,-,N/A,,Clear,180,2013-09-19 07:52:00
3:52 AM,77.0,66.0,69,29.83,10.0,South,8.1,-,N/A,,Clear,190,2013-09-19 08:52:00
4:52 AM,75.9,66.0,71,29.83,10.0,South,10.4,-,N/A,,Clear,180,2013-09-19 09:52:00
5:52 AM,75.0,66.0,73,29.83,10.0,South,6.9,-,N/A,,Clear,170,2013-09-19 10:52:00
6:52 AM,75.0,66.9,76,29.83,9.0,South,9.2,-,N/A,,Clear,170,2013-09-19 11:52:00
7:52 AM,75.0,66.9,76,29.84,7.0,South,8.1,-,N/A,,Clear,180,2013-09-19 12:52:00
8:52 AM,78.1,66.9,68,29.84,9.0,SSW,15.0,20.7,N/A,,Clear,200,2013-09-19 13:52:00
9:52 AM,82.9,68.0,60,29.85,10.0,SSW,11.5,21.9,N/A,,Clear,200,2013-09-19 14:52:00
10:52 AM,86.0,68.0,55,29.86,10.0,SSW,15.0,24.2,N/A,,Clear,210,2013-09-19 15:52:00
11:52 AM,89.1,69.1,52,29.84,10.0,South,9.2,19.6,N/A,,Clear,190,2013-09-19 16:52:00
12:52 PM,91.0,68.0,47,29.82,10.0,SSW,18.4,27.6,N/A,,Clear,200,2013-09-19 17:52:00
1:52 PM,93.0,68.0,44,29.80,10.0,SSW,15.0,28.8,N/A,,Clear,210,2013-09-19 18:52:00
2:52 PM,93.9,66.9,41,29.76,10.0,SSW,16.1,25.3,N/A,,Clear,210,2013-09-19 19:52:00
3:52 PM,91.9,66.9,44,29.72,10.0,SSW,18.4,33.4,N/A,,Scattered Clouds,210,2013-09-19 20:52:00
4:52 PM,90.0,66.9,46,29.71,10.0,SSW,16.1,26.5,N/A,,Mostly Cloudy,200,2013-09-19 21:52:00
5:21 PM,84.2,69.8,62,29.74,2.0,SSW,13.8,24.2,0.08,Rain-Thunderstorm,Thunderstorms and Rain,210,2013-09-19 22:21:00
5:36 PM,84.2,69.8,62,29.73,10.0,SSW,11.5,19.6,0.08,Thunderstorm,Overcast,210,2013-09-19 22:36:00
5:52 PM,75.9,68.0,76,29.78,10.0,NW,11.5,20.7,0.08,Thunderstorm,Thunderstorm,320,2013-09-19 22:52:00
6:13 PM,71.6,69.8,94,29.82,1.8,NNW,16.1,26.5,0.15,Rain-Thunderstorm,Heavy Thunderstorms and Rain,340,2013-09-19 23:13:00
6:28 PM,71.6,68.0,88,29.84,0.8,Variable,6.9,23.0,0.48,Rain-Thunderstorm,Heavy Thunderstorms and Rain,0,2013-09-19 23:28:00
6:36 PM,71.6,69.8,94,29.84,2.0,South,4.6,-,0.52,Rain-Thunderstorm,Thunderstorms and Rain,180,2013-09-19 23:36:00
6:48 PM,69.8,68.0,94,29.84,3.0,NNW,5.8,-,0.62,Rain-Thunderstorm,Light Thunderstorms and Rain,330,2013-09-19 23:48:00
6:52 PM,71.1,68.0,90,29.83,5.0,NW,3.5,-,0.62,Rain-Thunderstorm,Light Thunderstorms and Rain,310,2013-09-19 23:52:00
7:16 PM,71.6,69.8,94,29.89,3.0,Variable,3.5,-,0.05,Rain-Thunderstorm,Thunderstorms and Rain,0,2013-09-20 00:16:00
7:36 PM,71.6,68.0,88,29.90,2.5,WNW,3.5,-,0.15,Rain-Thunderstorm,Rain,300,2013-09-20 00:36:00
7:52 PM,71.1,66.9,87,29.89,8.0,Calm,Calm,-,0.17,Rain-Thunderstorm,Light Rain,0,2013-09-20 00:52:00
8:31 PM,69.8,66.2,88,29.92,1.8,NNW,6.9,-,0.21,Rain-Thunderstorm,Heavy Thunderstorms and Rain,340,2013-09-20 01:31:00
8:40 PM,69.8,66.2,88,29.91,3.0,NNW,8.1,-,0.25,Rain-Thunderstorm,Light Thunderstorms and Rain,340,2013-09-20 01:40:00
8:52 PM,70.0,66.9,90,29.91,9.0,NW,8.1,-,0.27,Rain,Light Rain,320,2013-09-20 01:52:00
9:35 PM,69.8,66.2,88,29.94,7.0,North,4.6,-,0.02,Rain-Thunderstorm,Light Rain,350,2013-09-20 02:35:00
9:50 PM,69.8,66.2,88,29.94,7.0,NNW,8.1,-,0.04,Rain,Light Rain,340,2013-09-20 02:50:00
9:52 PM,69.1,66.0,90,29.92,8.0,NNW,8.1,-,0.04,Rain,Light Rain,340,2013-09-20 02:52:00
10:52 PM,69.1,66.0,90,29.91,10.0,NW,8.1,-,0.01,,Scattered Clouds,310,2013-09-20 03:52:00
11:52 PM,68.0,66.0,93,29.92,8.0,WNW,5.8,-,N/A,,Partly Cloudy,290,2013-09-20 04:52:00